User: anonymous
Location: Brno
(49.2000°N, 16.6330°E)
Time: 09:20:30
(UTC+02:00)
Language:

Meteor 1-4 Rocket - Orbit

View from above orbital plane
View from above orbital plane
View from above satellite
View from above satellite

Ground track
Ground track

The orbit data is extracted from the following two-line orbital elements,

1 04394U 70037B   14107.96765017  .00009131  00000-0  41097-3 0  5524
2 04394 081.2450 285.7948 0049905 094.0706 266.6231 15.19812443388562
Epoch (UTC): 17 April 2014 23:13:24
Eccentricity: 0.0049905
inclination: 81.2450°
perigee height: 472 km
apogee height: 541 km
right ascension of ascending node: 285.7948°
argument of perigee: 94.0706°
revolutions per day: 15.19812443
mean anomaly at epoch: 266.6231°
orbit number at epoch: 38856

The dashed part of the orbit path shows where the satellite is in the earth's shadow,  

DLR